www.pogodaiklimat.ru

Погода и климат >> Архив погоды >> Ливия >> Marada


ПОГОДА в Marada

  • Прогноз погоды в Marada
  • Монитор погоды в Marada
  • Климат города

АРХИВ ПОГОДЫ в Marada

Время (UTC), дата Ветер
(напр.,м/с)
 
Видим.   Явления Облачность Т
(С)
Тd
(С)
f
(%)
Тe
(С)
Тes
(С)
Комфортность P
(гПа)
Po
(гПа)
Тmin
(С)
Tmax
(С)
R
(мм)
S
(см)
03 21.03 3400 м ?/? +40.2 1002.1 1002.0
06 21.03 14 км {гроза} ?/? +50.4 1003.3 1003.0
09 21.03 1000 м {морось} ?/? +50.5 1006.0 1006.0
12 21.03 2400 м ?/? +50.4 1007.8 1008.0
15 21.03 н/о {гроза} ?/? +50.4 1008.0 1008.0
18 21.03 50 км {дождь} ?/? +50.3 1008.7 1009.0
21 21.03 1400 м {метель} ?/? +30.3 1009.5 1010.0
00 22.03 400 м ?/? +7.7 1010.0 1010.0
03 22.03 3400 м ?/? +7.0 1010.2 1010.0
06 22.03 14 км ?/? +7.5 1009.8 1010.0
09 22.03 1000 м ?/? +7.9 1010.9 1011.0
18 24.03 50 км ?/? +40.2 1033.3 1033.0
21 24.03 1400 м ?/? +40.2 1034.9 1035.0
00 25.03 400 м {гроза} ?/? +40.2 1035.1 1035.0
03 25.03 3400 м {ливн. осадки} ?/? +40.2 1034.3 1034.0
06 25.03 14 км {снег} ?/? +40.1 1033.9 1034.0
09 25.03 1000 м {дождь} ?/? +30.1 1034.4 1034.0
12 25.03 2400 м {дождь} ?/? +40.1 1033.1 1033.0
15 25.03 н/о {дождь} ?/? +30.1 1030.9 1031.0
18 25.03 50 км {дождь} ?/? +30.1 1029.5 1030.0
21 25.03 1400 м {дождь} ?/? +30.1 1029.6 1030.0
00 26.03 400 м {дождь} ?/? +30.1 1028.5 1029.0
03 26.03 3400 м {дождь} ?/? +30.1 1027.5 1028.0
06 26.03 14 км {дождь} ?/? +30.1 1027.7 1028.0
09 26.03 1000 м {морось} ?/? +30.1 1027.9 1028.0
12 26.03 2400 м {морось} ?/? +30.1 1027.9 1028.0
15 26.03 н/о {морось} ?/? +30.1 1027.0 1027.0
18 26.03 50 км {ливн. осадки} ?/? +30.2 1026.4 1026.0
21 26.03 1400 м {снег} ?/? +30.1 1027.0 1027.0
00 27.03 400 м {снег} ?/? +30.1 1026.5 1027.0
03 27.03 3400 м {дождь} ?/? +30.1 1025.2 1025.0
06 27.03 14 км {снег} ?/? +30.1 +4 +4 1025.3 1025.0
09 27.03 1000 м {снег} ?/? +30.1 1025.5 1026.0
12 27.03 2400 м {снег} ?/? +30.1 1024.6 1025.0
15 27.03 н/о {дождь} ?/? +30.1 1022.9 1023.0
18 27.03 50 км {снег} ?/? +40.1 1022.6 1023.0
21 27.03 1400 м {дождь} ?/? +30.1 1022.4 1022.0
00 28.03 400 м {дождь} ?/? +30.1 1021.8 1022.0

 

Местоположение метеостанции Marada (Ливия): широта 29.47 долгота 19.33 высота над уровнем моря 37 м.

В архиве по умолчанию представлена погода в Marada за последнюю неделю. Архивные данные за месяц целиком и за предыдущие месяцы, начиная с января 2011 года, Вы можете получить, выбрав интересующий диапазон дат из раскрывающегося списка и нажав кнопку "Ввод!".

Внимание! Время в таблицах - всемирное. Для получения местного времени необходимо прибавить поправку, которая в Marada равна 1 ч.

Смотрите также архив погоды в соседних городах и на ближайших метеорологических станциях:

Погода в Jalo (Ливия) (223 км)
Погода в Benina (Ливия) (306 км)
Погода в Sirte (Ливия) (327 км)
Погода в Hon (Ливия) (332 км)
Погода в Tazerbo (Ливия) (445 км)
Погода в Vyeboom (Южная Африка) (519 км)
Погода в Misurata (Ливия) (524 км)
Погода в Sebha (Ливия) (550 км)
Погода в Beni Walid (Ливия) (554 км)
Погода в Gariat El-Sharghia (Ливия) (563 км)

Пояснения к столбцам:

Ветер - указаны скорость ветра в м/с - средняя за 10 мин, порывы в срок и между сроками (в фигурных скобках) и направление, откуда дует ветер: С - северный, СВ - северо-восточный, В - восточный, ЮВ - юго-восточный, Ю - южный, ЮЗ - юго-западный, З - западный, СЗ - северо-западный.
Видимость - горизонтальная дальность видимости в метрах или километрах. При видимости от 1 до 10 км при отсутствии осадков обычно наблюдается дымка, при ухудшении видимости до 1 км и менее - туман. В сухую погоду видимость может ухудшаться дымом, пылью или мглою.
Явления - указаны атмосферные явления, наблюдавшиеся в срок или в последний час перед сроком; фигурными скобками обозначены явления, наблюдавшиеся между сроками (за 1-3 часа до срока); квадратными скобками обозначены град или гололедные отложения с указанием их диаметра в мм.
Облачность - указаны через наклонную черту общая и нижняя облачность в баллах и высота нижней границы облаков в метрах; квадратными скобками обозначены формы облаков: Ci - перистые, Cs - перисто-слоистые, Cc - перисто-кучевые, Ac - высококучевые, As - высокослоистые, Sc - слоисто-кучевые, Ns - слоисто-дождевые, Cu - кучевые, Cb - кучево-дождевые. Подробнее классификацию облаков см. в Атласе облаков (PDF).
T - Температура воздуха - температура, измеренная на высоте 2 м над землей.
Td - Температура точки росы - температура, при понижении до которой содержащийся в воздухе водяной пар достигнет насыщения.
f - Относительная влажность воздуха - влажноcть воздуха, измеренная на высоте 2 м над землей.
Te - Эффективная температура - температура, которую ощущает одетый по сезону человек в тени. Характеристика душности погоды. При расчете учитывается влияние влажности воздуха и скорости ветра на теплоощущения человека.
Tes - Эффективная температура на солнце - температура, которую ощущает человек, с поправкой на солнечный нагрев. Характеристика знойности погоды. Зависит от высоты солнца над горизонтом, облачности и скорости ветра. Ночью, в пасмурную погоду, а также при ветре 12 м/с и более поправка равна нулю.
P - Атмосферное давление - приведенное к уровню моря атмосферное давление.
Po - Атмосферное давление - измеренное на уровне метеостанции атмосферное давление.
Tmin - Минимальная температура - минимум температуры воздуха на высоте 2 м над землей.
Tmax - Максимальная температура - максимум температуры воздуха на высоте 2 м над землей.
R - Количество осадков - Количество выпавших осадков, мм. При наведении курсора мыши на число - период времени, за который выпало указанное количество осадков.
S - Снежный покров - Высота снежного покрова, см. При наведении курсора мыши на число - состояние снежного покрова и степень покрытия местности в баллах.